60-min_data_Kizahashi_2012.csv,,,,,,,,
TIMESTAMP,Wind_speed,Wind_direction,Air_Temp,Humidity,Solar radiation,PAR,UV,Air pressure
(yyyy/mm/dd hh:mm),(m/s),(degree),(��),(%),(W/m^2),(micro-mol/m^2/s),(W/m^2),(hPa)
,Avg,Avg,Smp,Smp,Avg,Avg,Avg,Smp
2012/1/1 0:00,1.175,66.67,-0.221,81.1,9.514055,23.64488,0.8512087,995.5813
2012/1/1 1:00,1.284,23.71,-0.305,79.85,9.348848,22.64808,0.8438337,995.3328
2012/1/1 2:00,1.167,20.09,1.151,53.1,14.2626,30.60581,1.1297,994.8358
2012/1/1 3:00,3.475,64.63,1.108,53.54,27.97044,56.75636,1.947442,994.2146
2012/1/1 4:00,1.811,42.52,0.284,68.33,56.15059,109.8074,3.527275,993.7177
2012/1/1 5:00,1.127,6.147,0.411,63.28,104.5257,196.3418,6.177742,993.0964
2012/1/1 6:00,1.464,2.191,1.64,55.16,257.0455,418.0942,10.98191,992.4753
2012/1/1 7:00,0.973,349.3,2.141,49.97,427.2689,654.2374,15.80036,991.8541
2012/1/1 8:00,1.088,354.2,3.663,36.49,549.0306,853.647,20.46176,991.3571
2012/1/1 9:00,2.975,46.36,4.022,26.48,663.9229,1035.83,25.29815,990.7359
2012/1/1 10:00,3.557,56.25,3.147,33.02,752.0594,1187.036,30.11161,989.9905
2012/1/1 11:00,3.882,52.37,4.188,30.05,844.0947,1340.009,35.55473,989.3693
2012/1/1 12:00,4.258,68.47,4.314,29.51,888.3504,1423.957,39.7305,988.6238
2012/1/1 13:00,2.381,19.71,2.466,51.31,894.8994,1455.302,41.9673,987.4993
2012/1/1 14:00,3.188,25.9,3.35,34.89,874.5977,1429.295,42.07722,986.5197
2012/1/1 15:00,1.721,2.861,3.63,47.19,810.5524,1349.055,39.54546,985.6304
2012/1/1 16:00,2.366,308.5,3.477,46.72,727.6505,1221.072,35.45115,984.7613
2012/1/1 17:00,1.879,265.4,4.595,30.85,624.5278,1054.714,30.04823,984.2646
2012/1/1 18:00,2.428,30.27,4.237,29.5,501.7077,863.1625,23.84293,983.7681
2012/1/1 19:00,2.146,18.36,1.973,48.39,246.2303,535.0583,17.5239,983.2714
2012/1/1 20:00,1.117,344.3,1.64,49.33,233.2252,460.0894,11.87624,983.0231
2012/1/1 21:00,0.97,339.6,3.552,37.34,135.4503,313.0169,7.561844,982.4023
2012/1/1 22:00,4.218,71.59,1.849,42.73,89.17445,176.2398,4.332513,982.154
2012/1/1 23:00,3.598,61.15,1.057,40.54,15.27097,52.60359,2.487463,981.9056
2012/1/2 0:00,4.024,60.85,-0.026,43.65,11.55136,38.50945,1.603037,981.7815
2012/1/2 1:00,5.24,64.77,-0.85,42.61,10.21594,33.64618,1.341243,981.6573
2012/1/2 2:00,4.487,63.62,-1.126,41.56,11.96546,38.59864,1.664256,981.5437
2012/1/2 3:00,4.26,55.23,-1.844,45.4,15.77501,52.21238,2.616432,981.2427
2012/1/2 4:00,3.502,49.63,-1.806,42.78,22.11932,70.91514,4.312944,981.3149
2012/1/2 5:00,3.665,56.66,-1.712,42.82,28.64299,91.42215,6.601359,981.4178
2012/1/2 6:00,3.726,64.4,-0.389,40.53,267.639,399.2312,11.04296,981.4178
2012/1/2 7:00,3.295,60.52,-0.096,38.48,434.812,642.6769,15.75578,981.5421
2012/1/2 8:00,2.167,46.83,-0.635,52.26,557.137,839.0067,20.42639,981.6664
2012/1/2 9:00,2.432,258.3,-1.135,49.66,671.7791,1029.757,25.32439,981.5421
2012/1/2 10:00,3.734,238.6,-0.428,43.13,775.8945,1196.707,30.37025,981.6664
2012/1/2 11:00,3.682,226.2,0.027,46.56,851.2892,1331.026,35.55436,981.7906
2012/1/2 12:00,4.222,250.2,-0.635,56.77,895.7983,1418.273,39.89067,981.9149
2012/1/2 13:00,4.011,248.8,0.069,58.59,906.0878,1451.225,42.11008,981.6664
2012/1/2 14:00,3.71,244.5,0.613,54.14,880.8508,1426.662,42.19107,981.5125
2012/1/2 15:00,3.9,242.6,0.478,48.48,822.2405,1347.079,39.74351,981.1721
2012/1/2 16:00,3.553,237.6,0.655,45.11,736.1431,1218.793,35.6186,981.041
2012/1/2 17:00,3.173,231.3,1.021,40.55,627.936,1052.286,30.12366,980.6003
2012/1/2 18:00,3.206,252,1.392,49.55,506.843,861.8787,23.87193,980.4255
2012/1/2 19:00,3.303,256.6,1.459,45.17,248.5865,534.1483,17.49193,980.2918
2012/1/2 20:00,3.352,241.7,1.17,46.11,237.4706,457.2621,11.85069,980.4159
2012/1/2 21:00,3.711,234.2,1.135,45.1,138.3159,306.3297,7.505747,980.5399
2012/1/2 22:00,3.447,239.5,0.768,56.05,96.93056,183.5466,4.264111,980.7977
2012/1/2 23:00,2.157,257.1,-0.143,67.94,38.74074,72.10803,2.073439,981.0837
2012/1/3 0:00,1.668,15.99,-1.347,73.97,19.01332,42.0913,1.525968,981.4959
2012/1/3 1:00,1.434,10.16,-0.037,60.74,18.7365,35.83171,1.169439,981.6616
2012/1/3 2:00,1.414,42.64,-0.433,60.54,15.85019,37.48481,1.486133,981.8354
2012/1/3 3:00,0.683,17.39,-0.462,60.11,29.38548,57.16539,1.921733,982.0391
2012/1/3 4:00,1.412,249.2,-0.472,70.35,48.39506,94.75024,3.045671,982.0391
2012/1/3 5:00,2.507,239.5,0.276,62.6,71.49679,145.4348,4.536742,982.1633
2012/1/3 6:00,3.221,233.2,0.859,58.66,135.8649,263.6574,7.986703,982.2876
2012/1/3 7:00,1.731,246.2,2.48,49.33,209.0338,403.1328,11.90315,982.4118
2012/1/3 8:00,0.895,19.47,3.77,47.68,356.411,665.6265,17.53761,982.7845
2012/1/3 9:00,1.183,16.82,3.396,51.21,721.6168,1158.638,26.5013,982.6603
2012/1/3 10:00,1.155,358.4,3.064,51.21,752.5911,1209.945,29.86356,982.6603
2012/1/3 11:00,2.771,253.1,3.959,43.26,634.0359,1069.552,31.76554,982.6603
2012/1/3 12:00,3.364,256.4,3.845,45.28,872.4299,1419.81,39.43144,982.6563
2012/1/3 13:00,3.328,259.7,4.598,37.15,885.7179,1457.186,41.73413,982.4539
2012/1/3 14:00,3.747,258.3,4.699,39.44,869.8622,1450.473,42.06215,982.2849
2012/1/3 15:00,3.308,242.6,4.267,39.98,837.2784,1425.127,40.63142,981.9056
2012/1/3 16:00,2.864,233.5,4.636,36.85,696.4092,1190.468,34.88783,981.4091
2012/1/3 17:00,3.353,233.8,4.476,38.05,611.5381,1050.526,29.90908,980.7883
2012/1/3 18:00,3.645,228.9,4.799,36.84,496.2682,860.6614,23.75385,980.1675
2012/1/3 19:00,3.462,225.8,4.466,37.48,244.7281,533.6291,17.41852,979.5468
2012/1/3 20:00,3.16,237.5,5.465,35.22,237.5582,457.3098,11.78708,979.05
2012/1/3 21:00,3.191,239.6,5.632,37.44,139.4692,305.4465,7.432404,978.5535
2012/1/3 22:00,3.765,54.06,3.593,39.94,82.43036,172.9467,4.237928,978.181
2012/1/3 23:00,8.94,76.62,3.843,33.54,15.92989,51.88376,2.402189,977.6843
2012/1/4 0:00,11.11,88.5,3.283,33.14,11.37547,37.46696,1.518622,977.1877
2012/1/4 1:00,11.65,88.6,2.723,31.76,10.00441,32.46122,1.29032,976.567
2012/1/4 2:00,10.05,89.8,2.141,33.21,11.48322,37.34451,1.552757,975.5737
2012/1/4 3:00,11.19,91,2.012,34.36,15.65428,50.86037,2.467646,974.7046
2012/1/4 4:00,11.34,88.1,1.81,35.3,21.16846,69.31704,4.110669,973.8236
2012/1/4 5:00,11.8,86.8,2.333,32.41,27.90869,89.52287,6.350608,973.2163
2012/1/4 6:00,12.5,88.6,3.143,31.1,249.9308,382.5839,10.64552,972.3364
2012/1/4 7:00,12.16,86.6,4.085,29.55,420.7254,632.1158,15.32248,971.6029
2012/1/4 8:00,11,84.2,4.81,32.24,539.4195,824.4879,19.82867,971.106
2012/1/4 9:00,10.95,82.8,4.353,35.61,650.4046,1012.877,24.62146,970.7332
2012/1/4 10:00,9.33,71.2,5.224,39.93,745.5477,1183.342,29.52577,971.106
2012/1/4 11:00,3.778,33.41,3.666,54.72,700.7318,1194.251,32.57104,971.6029
2012/1/4 12:00,1.5,345.4,5.183,39.05,733.191,1330.925,36.96423,971.582
2012/1/4 13:00,3.101,256.9,4.103,43.42,644.3514,1226.497,34.20271,971.5944
2012/1/4 14:00,3.222,217.2,3.933,41.6,507.6359,1018.932,28.71729,971.4858
2012/1/4 15:00,4.103,240.9,3.687,49.78,560.4136,1060.457,30.36962,971.3619
2012/1/4 16:00,3.973,247.1,4.344,50.22,677.6304,1182.84,33.90512,970.9799
2012/1/4 17:00,4.405,226.3,4.261,51.97,593.207,1034.049,29.29733,970.6074
2012/1/4 18:00,3.519,237.1,4.594,54.33,347.4212,646.4777,20.64604,970.235
2012/1/4 19:00,2.623,253.2,6.089,45.98,217.082,482.8759,16.5976,969.8625
2012/1/4 20:00,1.601,296.1,4.339,56.41,272.4181,524.047,12.56481,970.1108
2012/1/4 21:00,0.705,336.4,3.778,60.75,148.8422,291.8718,7.255761,970.3591
2012/1/4 22:00,0.993,354.8,2.233,65.57,72.45909,138.9356,3.993542,970.7316
2012/1/4 23:00,2.216,35.79,3.157,55.26,31.90269,61.60904,2.237481,970.7316
2012/1/5 0:00,2.418,30.58,3.634,47.72,19.30064,38.37522,1.375237,971.1041
2012/1/5 1:00,4.299,52.82,3.511,44.93,20.38051,35.95305,1.149592,971.2282
2012/1/5 2:00,4.748,54.52,3.351,44.02,23.13237,42.21392,1.425108,971.3524
2012/1/5 3:00,5.321,64.41,2.394,45,34.23914,64.34004,2.25522,971.725
2012/1/5 4:00,5.635,62.02,3.057,38.19,45.13237,91.44942,3.598832,971.9731
2012/1/5 5:00,5.989,63.06,2.35,44.83,70.71535,143.8802,5.726971,972.4091
2012/1/5 6:00,5.581,57.87,3.023,39.51,190.6158,338.3768,10.16391,972.5948
2012/1/5 7:00,5.937,55.33,4.01,36.62,403.6683,653.0634,15.87424,972.8438
2012/1/5 8:00,5.804,52.42,4.471,38.91,587.3316,934.1127,21.41731,972.8945
2012/1/5 9:00,5.889,51.85,4.226,43.32,667.6121,1083.319,25.85078,973.0465
2012/1/5 10:00,5.18,55.23,6.261,37.09,647.9659,1070.857,28.49505,973.2531
2012/1/5 11:00,3.774,39.89,4.157,52.72,802.7238,1310.69,34.74275,973.9622
2012/1/5 12:00,2.088,31.75,6.263,42.54,870.9932,1434.027,39.3451,974.4019
2012/1/5 13:00,2.509,30.91,5.295,49.07,894.9484,1499.403,42.038,974.9529
2012/1/5 14:00,1.067,18.51,6.431,45,866.4496,1500.306,42.49481,975.5737
2012/1/5 15:00,1.921,312.2,5.741,49.94,732.0974,1311.701,38.43425,976.1945
2012/1/5 16:00,2.689,246.3,4.967,46.8,493.6729,941.2511,29.4848,976.9395
2012/1/5 17:00,2.54,237.3,6.214,43.67,418.7654,842.8957,22.50613,977.436
2012/1/5 18:00,2.857,225,4.342,49.9,333.875,662.2375,18.31061,977.6843
2012/1/5 19:00,3.97,232.1,4.59,50.2,226.9923,491.1329,15.85978,977.6843
2012/1/5 20:00,3.224,222.1,4.966,47.04,229.7448,438.9575,11.29428,977.9327
2012/1/5 21:00,3.123,220.6,4.962,47.47,165.4415,327.4221,7.335704,978.181
2012/1/5 22:00,3.182,232.3,4.049,54.61,97.24352,197.1287,4.113353,978.3052
2012/1/5 23:00,2.701,233.4,3.594,56.53,25.37179,61.95022,2.296428,978.5535
2012/1/6 0:00,1.338,273.9,2.554,61.89,13.50169,36.84407,1.422007,978.6776
2012/1/6 1:00,1.275,15.09,3.105,55.94,9.723841,27.99156,1.153615,978.9259
2012/1/6 2:00,3.75,48.51,1.017,65.64,11.59302,33.86414,1.444421,979.05
2012/1/6 3:00,3.376,34.64,1.143,65.14,25.20772,56.75812,2.359412,979.05
2012/1/6 4:00,2.091,10.01,0.271,63.62,36.22311,91.86535,4.170574,979.1742
2012/1/6 5:00,1.742,353.3,0.013,65.95,41.0597,111.9495,6.538309,979.1916
2012/1/6 6:00,1.468,6.24,1.479,60.39,247.3581,389.0736,10.85583,979.4042
2012/1/6 7:00,0.884,22.47,2.027,54.3,409.3627,635.0553,15.31256,979.5504
2012/1/6 8:00,0.811,29.87,3.342,51.47,510.2321,802.4563,19.537,979.3192
2012/1/6 9:00,0.999,26.96,2.592,57.47,555.9044,901.1827,23.38902,979.4264
2012/1/6 10:00,0.779,9.64,3.735,52.85,651.4402,1061.099,28.04656,979.3022
2012/1/6 11:00,2.904,244.8,3.559,50.05,775.6234,1264.927,33.82483,979.2097
2012/1/6 12:00,3.817,237.8,2.828,58.88,855.3383,1391.491,38.75388,979.1742
2012/1/6 13:00,3.551,249.7,4.471,47.93,870.5739,1431.843,41.02788,979.1742
2012/1/6 14:00,3.311,259.1,4.595,44.46,844.7277,1408.464,41.07217,979.1742
2012/1/6 15:00,3.145,256.9,5.114,43.44,788.0209,1330.435,38.74961,979.05
2012/1/6 16:00,2.751,253,6.298,41.38,704.9844,1204.346,34.73437,978.9259
2012/1/6 17:00,3.36,247,4.633,48.79,601.0771,1039.373,29.39672,978.8018
2012/1/6 18:00,3.397,247,4.8,49.73,487.521,849.0085,23.30222,978.6776
2012/1/6 19:00,3.601,243.1,4.175,55.25,243.652,527.8052,17.04662,978.4293
2012/1/6 20:00,3.286,233.7,4.217,53.67,239.5131,446.2625,11.50291,978.181
2012/1/6 21:00,1.089,321.6,3.841,59.23,150.7373,294.1293,7.263263,978.181
2012/1/6 22:00,2.017,270.6,2.638,62.46,70.85752,163.7201,4.116121,978.0568
2012/1/6 23:00,3.021,238.2,1.307,72.19,14.04627,49.51693,2.291106,977.9327
2012/1/7 0:00,0.982,321.3,-0.107,72.56,9.909764,34.71186,1.435045,977.6843
2012/1/7 1:00,1.484,14.03,-0.02,63.58,9.527259,29.28913,1.149402,977.6843
2012/1/7 2:00,1.783,358.9,-0.395,61.33,10.30806,34.04646,1.422286,977.436
2012/1/7 3:00,1.799,358.1,-0.64,63.09,14.8215,47.84898,2.316637,977.3119
2012/1/7 4:00,1.304,21.14,-0.774,58.91,20.81655,66.981,3.953738,977.0637
2012/1/7 5:00,1.999,69.44,-0.434,59.35,27.47856,87.67693,6.180491,976.7831
2012/1/7 6:00,1.076,24.9,1.379,50.6,235.1486,359.166,10.29345,976.3212
2012/1/7 7:00,1.324,25.38,1.522,54.88,409.1541,616.3972,14.95522,975.9402
2012/1/7 8:00,1.147,310.8,1.032,55.59,528.6354,812.1607,19.5674,975.5624
2012/1/7 9:00,1.673,255.5,1.322,58.32,641.7849,1002.43,24.40277,975.2051
2012/1/7 10:00,3.69,233.5,1.066,57.28,749.0818,1171.661,29.54691,974.6762
2012/1/7 11:00,3.916,239,1.356,59.29,825.7885,1306.415,34.69369,974.2123
2012/1/7 12:00,4.071,237.8,1.281,56.86,872.1087,1395.898,39.08079,973.7029
2012/1/7 13:00,4.185,237.5,1.77,53.12,884.1735,1431.213,41.28682,973.0205
2012/1/7 14:00,3.483,244.7,2.595,49.38,858.6678,1409.303,41.3452,972.4698
2012/1/7 15:00,3.429,251.4,3.805,41.8,801.1509,1332.088,38.96901,971.7249
2012/1/7 16:00,3.378,256.1,4.178,45.03,715.5817,1206.326,34.90301,971.2282
2012/1/7 17:00,3.64,247.8,3.595,47.69,611.0364,1041.769,29.55339,970.7316
2012/1/7 18:00,3.529,249.2,3.647,44.41,494.5227,852.2327,23.43488,970.1108
2012/1/7 19:00,3.395,255.1,3.593,48.82,245.6888,528.8598,17.10781,969.6141
2012/1/7 20:00,3.971,237.6,1.347,68.28,241.269,448.8599,11.57984,969.3658
2012/1/7 21:00,3.745,238.4,2.139,58.36,157.3375,295.9159,7.275692,968.9934
2012/1/7 22:00,1.917,258.5,0.149,71.05,69.63735,164.0807,4.080298,968.7451
2012/1/7 23:00,0.609,353.7,0.678,60.86,13.78259,48.35083,2.283858,968.4968
2012/1/8 0:00,4.168,46.34,1.806,42.74,11.45788,33.77013,1.35377,968.4968
2012/1/8 1:00,5.985,68.58,1.061,39.47,8.588656,28.31261,1.12038,968.3726
2012/1/8 2:00,6.561,70.68,0.374,40.86,10.06073,32.91058,1.341626,968.6368
2012/1/8 3:00,6.347,70.34,-0.184,40.45,14.21793,46.56694,2.21457,968.7908
2012/1/8 4:00,6.328,69.7,0.19,38.67,20.30973,65.66849,3.812844,969.1178
2012/1/8 5:00,5.568,70.82,0.524,39.32,26.83547,86.25466,6.047405,969.1856
2012/1/8 6:00,4.187,69.66,2.162,33.25,230.5395,352.2853,10.15795,969.4908
2012/1/8 7:00,3.74,67.55,2.897,31.4,409.9534,612.6927,14.85669,969.8635
2012/1/8 8:00,2.814,35.89,1.483,50.61,532.4421,809.5489,19.47691,970.2363
2012/1/8 9:00,2.424,34.13,2.272,46.97,646.0008,999.8451,24.27513,970.609
2012/1/8 10:00,2.375,25.77,1.484,59.8,743.1055,1170.105,29.29521,971.2302
2012/1/8 11:00,2.174,0.463,0.924,57.55,819.3609,1307.698,34.7017,971.7272
2012/1/8 12:00,2.905,242.2,1.273,60.88,865.9266,1394.557,38.90147,972.3043
2012/1/8 13:00,1.844,348.5,1.206,62.15,869.178,1430.41,41.36648,972.5955
2012/1/8 14:00,4,243.7,0.274,72.35,852.6976,1408.32,41.80525,972.9932
2012/1/8 15:00,2.686,261.1,0.748,64.67,794.8932,1331.317,39.1048,973.5875
2012/1/8 16:00,2.149,319.3,-0.433,79.72,707.6466,1205.153,34.97956,973.8355
2012/1/8 17:00,2.199,312.8,-0.27,78.14,616.2474,1054.126,29.73006,974.0839
2012/1/8 18:00,3.014,243.1,-1.682,82.2,384.3331,677.4736,18.376,974.3322
2012/1/8 19:00,3.217,256.8,-1.806,84.2,211.7014,390.5334,10.09614,974.3322
2012/1/8 20:00,2.867,262.4,-1.598,86.8,151.8723,272.5046,7.421439,974.3322
2012/1/8 21:00,2.926,240.4,-2.136,87.5,106.6902,188.2072,4.767984,974.4563
2012/1/8 22:00,2.811,237.9,-2.334,90.6,52.73911,92.88995,2.765121,974.7046
2012/1/8 23:00,2.828,235.1,-1.969,88.9,26.35378,52.857,1.844262,974.9602
2012/1/9 0:00,3.062,238,-2.882,93.1,30.49907,51.56248,1.240039,975.8236
2012/1/9 1:00,1.72,291.8,-2.8,91.1,23.06916,32.51136,0.6470437,976.7584
2012/1/9 2:00,1.683,259.3,-2.898,93.9,20.56217,36.19491,0.9691237,977.1937
2012/1/9 3:00,2.923,242,-2.796,91.4,22.61747,45.86267,1.507213,977.6907
2012/1/9 4:00,2.407,239.1,-2.506,91.1,30.58559,68.71068,2.287221,977.9391
2012/1/9 5:00,2.279,241.9,-2.134,87.2,49.0157,113.9675,3.723287,978.3119
2012/1/9 6:00,2.09,242.1,-1.124,73.53,78.00084,178.0696,5.665413,978.3119
2012/1/9 7:00,2.243,174.9,-1.259,77.17,153.3164,325.9317,10.09496,978.4362
2012/1/9 8:00,2.625,225.5,-0.8,67.33,211.146,440.745,13.63954,978.3119
2012/1/9 9:00,2.009,147.1,0.195,63.49,232.0276,516.0641,15.654,978.3119
2012/1/9 10:00,2.48,166.5,-0.052,62.54,311.5261,681.5392,20.41919,978.1876
2012/1/9 11:00,3.031,142,1.153,56.34,455.6415,925.0175,26.87815,978.1876
2012/1/9 12:00,2.743,197.1,1.605,53.01,782.0615,1412.404,36.93663,978.0634
2012/1/9 13:00,3.553,227,1.779,50.64,493.2792,965.3869,28.71767,977.8149
2012/1/9 14:00,3.867,234.3,1.982,52.26,455.8311,919.5876,26.95027,978.1876
2012/1/9 15:00,3.962,241.9,2.023,59.77,444.3189,895.0699,24.63276,978.0634
2012/1/9 16:00,2.578,256.4,3.389,48.65,353.0638,719.3864,20.16622,977.9391
2012/1/9 17:00,2.873,242.6,3.293,53.44,463.7296,864.6125,22.73323,977.4422
2012/1/9 18:00,3.35,238.1,2.769,53.84,284.8649,595.2292,16.41636,977.3153
2012/1/9 19:00,2.993,39.47,4.554,43.09,215.2962,423.9841,12.93286,976.962
2012/1/9 20:00,3.608,61.63,4.343,42.04,152.2601,301.8219,9.718191,977.0797
2012/1/9 21:00,3.212,79.85,4.249,39.45,142.6096,264.0845,6.64299,977.1908
2012/1/9 22:00,3.05,100.1,3.075,38,75.70766,157.514,3.772179,977.315
2012/1/9 23:00,3.915,91.9,2.615,35.91,40.7297,74.07346,2.036515,977.0665
2012/1/10 0:00,4.895,71.39,2.18,36.92,20.22811,38.2414,1.189458,977.2205
2012/1/10 1:00,3.191,63.64,1.397,38.34,19.38199,33.73892,0.9175555,977.3624
2012/1/10 2:00,3.203,48.35,-1.844,63.74,30.51759,55.93548,1.153759,977.6758
2012/1/10 3:00,4.574,52.07,2.134,31.44,65.62998,111.4174,2.144041,977.0695
2012/1/10 4:00,8.37,89.8,1.274,35.11,98.61006,183.616,4.087504,976.9452
2012/1/10 5:00,9.45,92.2,1.316,32.24,143.316,291.5384,7.839337,976.821
2012/1/10 6:00,9.8,92.8,1.108,34.7,249.9489,396.7104,10.62166,976.4482
2012/1/10 7:00,9.61,90.5,2.022,30.73,427.4751,632.8631,14.90127,976.1998
2012/1/10 8:00,9.86,86.9,3.603,26.55,565.2544,860.2564,20.30027,976.1998
2012/1/10 9:00,5.785,47.66,2.606,35.71,645.7172,987.2572,23.93918,976.4482
2012/1/10 10:00,4.48,38.54,1.566,50.81,743.4078,1154.773,28.80865,975.9513
2012/1/10 11:00,2.455,20.35,3.105,38.07,817.2579,1291.541,33.8634,975.5786
2012/1/10 12:00,4.12,227.5,3.438,30.19,865.592,1395.529,38.44431,974.8331
2012/1/10 13:00,3.226,246.7,4.699,30.93,872.2034,1417.654,40.32135,974.0877
2012/1/10 14:00,2.765,242.9,4.309,41.13,845.3996,1400.155,40.59633,973.3601
2012/1/10 15:00,2.119,17.11,5.679,31.26,787.9142,1321.533,38.28042,972.8946
2012/1/10 16:00,4.322,47.6,6.679,29.81,709.9904,1194.351,34.31019,972.8423
2012/1/10 17:00,3.894,41.37,4.304,46.65,609.3524,1033.877,29.09634,972.5939
2012/1/10 18:00,2.947,35.32,6.122,32.8,506.8169,874.8337,23.48692,972.7181
2012/1/10 19:00,3.965,43.02,4.091,43.77,257.7206,543.5198,17.00598,972.8423
2012/1/10 20:00,3.722,38.27,4.715,42.93,233.7797,437.4536,11.1696,973.2147
2012/1/10 21:00,2.667,63.29,4.756,38.02,155.7995,289.1275,6.887743,973.8355
2012/1/10 22:00,4.993,63.95,3.966,39.73,54.25777,126.1527,3.733815,974.4563
2012/1/10 23:00,5.606,54.26,1.23,56.37,30.35526,60.45493,1.849247,975.6979
2012/1/11 0:00,4.587,36.82,2.928,33.21,15.69509,32.36596,1.04665,976.1945
2012/1/11 1:00,6.733,60.13,2.847,32.54,9.180042,24.0314,0.8677554,976.4427
2012/1/11 2:00,8.75,88.8,1.851,32.94,13.23158,31.5189,1.065669,976.6911
2012/1/11 3:00,6.954,65.8,-0.602,44.06,20.42288,50.81025,1.861387,977.6843
2012/1/11 4:00,7.465,66.68,1.394,34.59,31.72685,78.28063,3.381931,977.5136
2012/1/11 5:00,10.34,87.4,1.627,32.47,51.2033,123.3983,5.697271,978.2006
2012/1/11 6:00,5.683,31.05,-0.307,44.1,249.0595,395.5731,9.789353,978.8019
2012/1/11 7:00,5.31,45.86,0.916,38.71,260.6371,461.1866,12.6473,978.9331
2012/1/11 8:00,4.47,38.47,0.194,55.46,297.9499,519.386,15.63968,979.0573
2012/1/11 9:00,4.777,38.65,1.816,45.38,604.5646,950.3023,23.39583,979.0573
2012/1/11 10:00,4.72,46.05,3.729,33.56,742.9188,1163.107,28.49113,979.4301
2012/1/11 11:00,3.449,32.12,3.604,47.17,810.3173,1287.676,33.45793,979.5543
2012/1/11 12:00,1.931,26.5,4.053,38.44,852.759,1386.92,37.86707,979.5543
2012/1/11 13:00,2.849,239.6,3.06,39.65,697.1429,1188.237,36.1233,979.6322
2012/1/11 14:00,2.91,223.4,3.395,33.72,636.5067,1113.431,34.44459,979.7877
2012/1/11 15:00,3.556,226.5,3.642,33.11,950.6267,1635.082,41.89386,979.6923
2012/1/11 16:00,3.563,231.5,3.308,33.51,492.5783,926.0444,28.01651,979.9275
2012/1/11 17:00,3.387,234.7,4.303,33.45,586.6722,1033.964,28.66006,979.6709
2012/1/11 18:00,3.344,239.4,3.929,36.04,498.8341,883.5704,23.06401,979.6709
2012/1/11 19:00,3.313,236.7,3.762,43.42,233.5296,494.8167,15.77004,979.2984
2012/1/11 20:00,3.198,252.8,3.305,41.43,243.5382,457.5552,11.08608,979.5468
2012/1/11 21:00,3.117,254.6,3.217,38.97,174.4668,314.5219,6.922171,979.6709
2012/1/11 22:00,2.744,245.2,2.266,41.8,46.60401,103.6135,3.475008,979.6709
2012/1/11 23:00,2.142,251.6,0.519,61.91,14.26133,44.50148,1.933177,979.9192
2012/1/12 0:00,1.055,21.62,-0.638,67.67,8.575372,28.45807,1.129957,980.0433
2012/1/12 1:00,1.042,349.9,-1.754,70.5,6.25905,21.37441,0.9008406,980.1675
2012/1/12 2:00,0.863,348.4,-1.553,68.74,9.039761,26.55374,1.123073,979.9192
2012/1/12 3:00,0.921,354.1,-2.01,67.31,16.16826,43.6041,1.936031,980.1592
2012/1/12 4:00,1.428,19.21,-2.758,74.59,30.35168,75.7593,3.535863,980.3441
2012/1/12 5:00,2.517,43.46,-1.504,73.18,62.68172,132.5255,5.960477,980.2996
2012/1/12 6:00,3.075,64.51,-1.095,65.77,210.1117,328.9536,9.612737,980.1755
2012/1/12 7:00,2.999,42.9,-0.43,60.28,395.5408,595.0607,14.2327,979.927
2012/1/12 8:00,3.414,50.63,-0.222,64.08,388.7393,645.5997,17.28961,979.8027
2012/1/12 9:00,3.881,64.53,-0.222,73.62,385.6216,699.2734,19.92785,979.6785
2012/1/12 10:00,4.548,72.66,-0.553,74.73,493.453,889.6532,25.74559,979.8027
2012/1/12 11:00,3.331,3.647,-1.178,85.1,504.6141,914.1334,27.69492,979.927
2012/1/12 12:00,2.434,341.9,-0.386,82.1,473.2731,869.3585,26.01807,979.927
2012/1/12 13:00,2.022,344.1,-0.428,79.78,372.5946,723.5267,21.37315,979.5543
2012/1/12 14:00,2.043,335,-0.302,76.75,422.9106,806.7606,24.81092,979.4301
2012/1/12 15:00,2.29,323.8,-0.428,79.95,497.8397,955.6416,27.16291,979.4301
2012/1/12 16:00,2.667,324.6,-0.973,82.5,261.6619,539.2678,15.95941,979.4301
2012/1/12 17:00,2.693,272.8,-1.365,81.7,144.3723,307.5964,9.169243,979.4301
2012/1/12 18:00,2.297,283.7,-1.251,78.61,92.27818,201.2256,6.013835,979.4301
2012/1/12 19:00,2.196,281.3,-1.471,80,72.0582,155.7172,4.695136,979.4301
2012/1/12 20:00,2.314,279.1,-1.426,79.85,45.38002,98.81702,3.045738,979.3058
2012/1/12 21:00,2.552,245.5,-2.214,88.7,16.92072,39.8056,1.221394,979.4301
2012/1/12 22:00,2.665,232.6,-2.132,86.9,7.549739,18.08141,0.5522164,979.8027
2012/1/12 23:00,2.561,229.2,-2.173,88.2,3.875836,9.577111,0.3886628,980.2997
2012/1/13 0:00,2.897,227.3,-2.124,86.4,2.119439,5.937684,0.2410585,980.5482
2012/1/13 1:00,2.565,229.2,-2.137,88.8,2.278768,6.11286,0.2780419,980.9209
2012/1/13 2:00,3.07,232.8,-2.378,88.8,2.13172,5.784092,0.2234959,981.1694
2012/1/13 3:00,2.727,255.7,-2.626,85.7,3.618309,9.073312,0.3670536,981.5421
2012/1/13 4:00,2.662,244.2,-2.787,90.3,8.07538,19.0506,0.6063255,981.9149
2012/1/13 5:00,2.345,237.6,-2.886,85.9,19.91704,44.39531,1.379897,982.0391
2012/1/13 6:00,2.238,232.3,-3.042,86.5,39.88995,85.74123,2.701341,981.7906
2012/1/13 7:00,2.157,232.9,-3.124,88.3,58.05744,122.6204,4.06561,981.6854
2012/1/13 8:00,2.607,239.4,-2.835,89.2,96.79852,199.3167,6.516546,981.5476
2012/1/13 9:00,1.956,257.2,-2.295,87,159.5721,316.6511,9.380672,981.5331
2012/1/13 10:00,2.11,247,-2.087,85.1,142.5659,294.7293,8.75074,981.6563
2012/1/13 11:00,2.78,241.4,-2.046,87.1,217.4873,431.0524,13.23873,981.4956
2012/1/13 12:00,2.865,261.8,-1.631,84.8,166.3765,349.6342,10.56146,981.3483
2012/1/13 13:00,2.281,293.8,-2.087,84.9,125.7528,278.1342,8.325992,980.8486
2012/1/13 14:00,2.488,256.5,-2.336,85.2,167.6384,354.8528,10.571,980.1877
2012/1/13 15:00,2.661,239.4,-1.464,81.6,227.3624,452.0804,13.43078,979.213
2012/1/13 16:00,2.471,229.9,-1.213,80.7,417.2824,748.7307,22.2659,978.1927
2012/1/13 17:00,2.593,246.2,-0.841,78.4,279.9976,517.522,16.16816,976.8212
2012/1/13 18:00,3.062,253.3,-0.761,79.14,475.8843,808.962,20.3554,975.7031
2012/1/13 19:00,3.7,236.2,-1.083,79.44,251.4721,498.8678,15.98833,974.5849
2012/1/13 20:00,3.844,235.2,-0.425,77.27,204.8628,398.662,10.80384,973.7152
2012/1/13 21:00,2.437,177.1,0.819,64.36,148.0211,269.4732,6.697695,973.591
2012/1/13 22:00,2.012,178.4,0.278,64.6,62.20876,139.0849,3.622434,973.2183
2012/1/13 23:00,2.572,225.6,-1.092,78.72,12.38842,42.67962,1.899705,972.9698
2012/1/14 0:00,2.034,224.3,-1.258,62.04,8.346688,27.21847,1.045796,973.3425
2012/1/14 1:00,1.857,58.94,-0.762,44.65,7.231957,21.85041,0.8101572,973.4667
2012/1/14 2:00,3.303,77.04,-0.918,48.5,8.472062,26.06962,0.9830945,973.8395